Presure
183 182 191 201 201 195 198 206 202 210 225 211 223 240 242 251 255 268 216 223 257 255 263 255 251 241 284 297 299 289 140 248 143 131 183 147 142 128 133 136 130 125 141 131 146 222 109
195 178 198 210 187 205 227 206 218 224 229 230 230 240 244 245 262 268 267 253 259 260 254 254 219 261 277 290 292 282 285 236 156 269 158 149 135 135 142 130 132 131 127 144 165 92 86
179 193 192 194 208 205 213 239 239 227 250 258 268 260 255 261 256 265 263 262 254 263 259 255 257 273 282 297 212 313 159 189 246 151 140 157 147 137 137 127 127 142 121 146 161 149 145
182 186 210 211 220 220 239 239 242 246 277 269 279 279 279 280 274 272 270 266 264 256 255 258 267 275 279 279 308 313 286 138 142 187 141 146 153 137 128 132 137 120 132 173 161 153 150
175 202 203 206 221 247 244 258 281 293 299 307 339 343 347 334 315 306 292 286 273 267 266 264 267 275 286 319 320 297 139 341 191 167 143 141 132 134 136 134 122 130 131 141 147 144 153
192 206 230 205 243 259 294 308 316 366 405 417 408 433 428 419 425 427 356 324 297 287 282 280 282 289 309 319 277 274 326 363 199 207 130 135 128 144 132 207 162 148 187 147 151 155 140
189 207 234 248 271 320 321 370 375 389 370 373 397 393 401 403 475 444 395 362 336 310 305 296 296 319 331 331 329 322 360 334 136 155 143 160 133 127 139 129 316 122 151 258 154 137 140
194 241 255 293 305 268 360 369 385 362 360 381 405 395 418 482 460 417 387 370 349 322 320 331 328 334 324 330 318 358 327 180 145 136 154 134 117 128 133 155 145 161 152 186 161 140 149
221 246 286 287 301 347 370 375 387 356 367 406 390 427 471 454 442 404 372 368 363 339 336 335 334 338 329 322 347 328 319 145 273 152 125 160 143 210 151 155 143 146 141 147 269 267 254
251 262 327 279 366 394 378 376 376 375 405 387 467 444 446 450 435 396 373 367 359 353 357 364 353 329 141 316 318 315 311 178 151 125 284 138 145 152 148 164 146 156 336 173 162 159 157
256 334 362 410 402 415 437 405 411 387 398 475 439 419 428 456 372 392 352 353 341 345 345 337 330 335 314 309 309 157 265 149 227 155 159 157 148 164 160 149 187 171 159 169 314 311 304
291 368 443 446 460 459 464 455 449 509 459 430 420 418 427 479 405 361 340 326 195 314 327 339 336 266 158 298 268 172 228 175 195 154 149 145 143 172 183 170 161 215 308 308 304 301 305
216 431 490 503 503 493 551 526 458 424 419 408 410 417 485 432 375 352 332 259 334 334 335 320 170 291 212 179 203 207 165 255 145 146 143 150 174 168 148 305 300 296 293 286 287 289 289
518 523 502 282 269 475 439 425 408 411 412 421 437 445 423 373 357 347 344 332 334 328 152 292 284 283 150 110 166 117 160 143 154 138 183 167 132 299 283 288 291 290 285 290 276 276 294
248 264 326 497 438 464 455 448 434 432 434 446 512 416 384 358 363 346 335 343 317 294 166 272 220 154 168 256 213 148 152 155 145 177 151 146 333 295 287 292 295 280 281 270 271 278 287
221 231 247 285 280 272 272 394 505 507 483 420 396 377 373 360 347 337 306 294 290 281 282 158 162 159 129 139 148 163 162 179 172 154 152 242 293 291 284 279 275 273 277 263 267 271 284
186 211 202 224 254 271 266 265 268 272 275 312 328 320 176 315 286 284 280 192 271 203 182 158 237 184 146 154 165 303 218 167 176 173 317 137 226 275 284 278 274 263 266 260 254 252 274
247 235 161 230 224 237 249 253 256 257 270 264 253 246 252 253 253 189 177 239 150 158 158 146 134 149 149 168 200 178 191 154 132 321 151 151 214 173 277 280 264 266 260 260 264 262 268
226 250 210 179 230 260 245 234 225 275 313 304 284 273 272 269 247 250 144 152 149 213 146 138 146 126 173 178 215 192 175 146 134 143 142 179 162 131 137 286 163 197 234 260 273 271 263
199 231 248 267 224 236 249 234 226 223 242 288 340 239 262 264 224 129 204 230 156 129 136 157 151 191 204 189 194 242 167 150 189 127 141 191 133 163 146 176 155 128 119 141 114 194 269
192 214 246 202 267 230 233 216 239 204 264 347 257 256 259 225 195 141 131 139 131 142 136 152 180 167 188 180 193 170 191 182 154 131 134 128 118 125 113 115 113 115 108 115 265 266 155
176 185 239 282 227 220 181 242 218 214 223 170 178 254 278 387 247 174 134 138 139 136 150 150 153 176 139 184 331 166 320 331 352 161 293 288 129 120 165 119 116 100 105 110 116 113 110
188 192 205 238 260 232 218 206 220 216 206 201 212 219 214 244 222 137 383 142 143 146 157 147 142 181 168 188 338 194 173 160 259 175 230 247 287 174 179 171 249 128 106 116 158 151 246
184 173 216 220 187 256 230 233 219 203 206 196 213 203 205 209 155 206 163 133 146 153 139 154 152 177 256 202 310 199 358 279 345 171 240 340 209 264 228 260 295 235 166 295 217 226 129
173 174 194 194 193 265 260 225 241 220 170 210 214 207 198 197 220 200 240 124 144 143 135 185 204 146 157 143 158 156 192 239 282 184 189 179 185 153 349 308 192 156 193 300 204 306 168
159 204 170 185 197 198 274 260 229 251 227 211 215 213 211 207 202 204 136 129 142 140 150 134 144 142 163 152 173 186 152 160 147 159 167 210 204 199 174 149 173 232 209 197 240 240 239
190 184 192 183 183 225 208 269 255 224 231 236 165 218 211 201 202 209 132 136 148 142 137 144 140 148 138 149 154 193 161 154 158 170 141 149 180 162 221 204 187 174 184 191 193 198 188
204 167 166 205 185 193 193 233 266 256 202 218 234 176 210 225 212 209 206 141 183 140 156 138 132 143 146 151 163 199 154 145 147 151 182 192 138 189 159 207 199 188 189 185 191 189 165
164 163 158 167 168 185 186 234 240 275 255 231 216 189 224 165 203 177 124 137 184 175 132 179 143 139 145 139 144 139 204 159 163 140 212 207 195 197 206 208 198 192 195 201 197 181 184
Wind_Speed
73 72 75 80 80 81 83 85 86 88 86 85 88 91 90 87 80 78 70 69 81 77 74 74 76 69 72 68 65 73 56 72 55 48 65 57 52 49 52 53 49 48 53 51 60 73 38
75 70 82 82 80 89 89 88 91 91 92 92 93 95 94 90 86 78 76 78 77 77 76 75 68 73 72 72 67 73 72 62 55 69 55 55 55 55 56 48 49 51 49 55 52 22 23
81 84 85 87 90 91 93 96 97 96 101 103 99 98 99 96 93 84 81 79 78 76 78 77 73 73 73 72 59 67 56 53 58 54 54 54 56 50 51 38 42 49 48 47 51 60 62
87 88 98 96 98 98 104 103 102 103 102 98 97 98 98 95 95 93 87 85 82 79 77 77 76 69 71 67 69 65 68 50 51 51 52 53 57 45 33 35 41 40 49 49 56 55 59
82 96 95 96 103 109 105 107 105 103 99 98 93 93 92 94 95 94 93 90 88 84 81 76 72 70 68 73 68 62 50 49 51 49 52 49 35 30 33 34 39 47 41 53 54 57 62
95 97 111 97 112 115 109 102 102 94 83 76 79 73 57 56 57 62 87 88 87 88 85 83 79 73 70 67 54 45 47 43 40 49 26 30 21 33 28 51 44 49 53 56 56 56 51
99 105 119 117 116 111 107 103 98 88 92 85 89 67 67 67 51 34 51 81 81 82 83 81 74 66 59 55 49 43 38 38 36 55 43 53 21 32 41 36 51 36 53 57 54 48 51
99 125 117 122 114 96 117 102 90 86 91 95 90 77 81 27 23 28 33 36 62 68 72 67 61 53 46 46 36 33 33 12 40 19 47 34 23 34 39 46 45 52 49 53 53 47 55
113 120 121 110 113 114 103 100 80 87 91 90 81 74 25 14 19 31 32 34 41 54 57 49 43 39 39 30 28 28 31 19 24 42 23 41 27 34 45 45 42 42 42 49 16 17 18
124 116 123 105 104 91 93 92 82 86 85 81 41 23 16 16 24 37 34 25 34 39 39 34 32 30 20 23 26 25 21 33 39 20 24 22 31 39 38 46 38 48 22 51 49 50 49
116 123 119 96 90 85 76 78 69 76 81 30 18 9 14 10 29 44 43 36 34 27 29 31 28 22 20 24 22 40 21 32 22 32 33 34 32 40 41 38 39 45 45 48 26 21 19
117 109 90 82 77 73 63 60 59 26 18 17 15 10 7 11 49 57 51 45 27 31 30 26 24 21 27 23 22 16 19 26 22 27 26 23 24 34 35 39 40 19 36 31 28 21 20
104 85 80 72 59 52 32 23 21 19 17 13 12 17 8 47 53 61 49 30 38 35 30 31 15 29 25 19 18 22 24 18 24 22 20 21 23 28 18 38 36 34 30 26 22 22 21
83 77 66 77 68 42 39 31 27 26 24 20 11 17 51 55 57 53 48 44 39 39 11 37 31 24 17 20 22 18 22 17 22 16 18 21 9 40 33 29 31 32 28 30 27 19 20
90 101 82 49 55 50 47 39 32 25 25 23 19 56 60 57 59 55 52 49 50 44 15 30 28 16 24 11 15 17 18 20 14 13 14 15 38 44 37 35 37 30 33 29 26 23 19
88 92 98 82 74 72 74 63 45 38 43 63 62 60 59 58 55 52 50 45 41 34 29 19 21 22 12 9 12 16 7 12 12 9 11 22 47 46 37 34 33 32 32 27 28 24 23
70 77 64 81 87 77 71 64 62 62 64 61 58 53 34 51 45 42 37 23 31 26 25 23 15 10 11 10 12 15 13 12 7 3 37 10 16 33 39 35 36 29 27 27 22 24 23
113 84 42 85 78 88 74 66 60 55 54 52 55 51 44 43 39 33 26 38 20 25 25 19 14 10 7 10 18 15 15 9 4 27 5 12 13 8 33 32 28 29 24 22 27 18 26
96 100 77 47 84 75 74 65 57 55 46 44 43 36 34 32 27 23 21 21 21 13 16 10 9 9 12 14 17 16 12 10 3 3 8 8 6 11 11 30 6 7 20 23 24 33 33
85 95 80 73 71 78 71 65 57 54 50 45 35 35 28 25 17 23 13 9 12 13 10 13 9 20 22 16 18 15 14 10 12 5 6 13 2 4 4 3 2 12 4 6 2 21 36
85 87 85 66 67 71 70 61 58 42 53 52 41 37 33 27 27 21 18 16 10 9 9 9 17 11 7 13 17 9 17 7 11 9 10 8 7 7 11 8 10 4 6 5 21 22 5
72 74 86 59 60 59 41 65 56 51 50 30 30 44 47 37 28 20 13 11 9 9 14 9 5 13 2 12 29 10 26 27 24 4 28 29 16 11 7 11 14 12 13 11 12 11 12
67 72 74 70 62 55 51 47 51 48 45 37 43 38 36 37 29 15 23 12 12 11 12 6 1 10 11 17 31 15 7 5 19 10 13 15 28 9 12 8 7 16 20 18 3 16 22
67 59 77 72 36 55 47 43 47 36 36 32 39 35 34 32 14 24 19 12 13 13 7 6 7 10 23 20 33 18 30 19 30 4 7 18 7 5 16 19 24 10 8 24 2 17 20
65 63 65 69 62 55 44 38 39 36 15 27 28 25 26 26 25 23 31 13 15 11 8 9 16 4 3 4 4 4 15 31 52 12 11 11 12 9 14 18 14 3 8 22 5 23 6
42 66 37 65 67 61 43 37 31 39 32 26 24 20 18 17 19 20 20 17 17 15 8 8 4 3 4 2 6 11 3 6 3 7 11 18 14 11 17 1 17 33 21 15 30 31 28
51 53 59 53 57 59 43 37 32 24 27 30 8 18 12 11 11 12 16 15 16 16 16 7 5 1 1 3 2 10 4 3 7 8 14 2 11 10 18 15 7 15 10 7 7 9 3
58 41 49 51 62 59 32 56 36 28 22 17 24 2 13 14 9 7 7 13 3 17 9 14 12 5 3 3 2 5 5 3 3 8 4 8 4 11 11 9 4 9 7 6 6 5 11
54 50 33 49 34 61 57 56 48 24 20 20 13 2 19 6 2 5 17 12 8 9 16 9 13 13 3 5 2 1 1 10 13 9 5 3 7 6 4 5 7 11 9 7 8 13 13
Wind_Direction
332 330 327 323 320 319 315 310 309 305 301 298 297 296 294 292 287 271 267 263 265 265 264 263 262 265 274 276 264 256 232 251 230 228 239 229 231 237 239 235 241 247 236 252 234 251 235
333 329 329 323 324 318 315 311 306 302 299 297 296 294 292 290 284 277 267 266 262 263 262 261 255 268 271 272 263 260 256 244 230 248 225 229 233 235 233 239 239 241 248 234 241 239 217
332 333 329 325 322 318 314 314 309 302 303 301 297 291 289 286 283 275 270 265 262 262 263 263 263 270 274 278 250 274 229 238 244 224 230 226 229 232 234 238 241 236 250 239 228 234 238
332 330 329 325 321 317 316 313 310 307 303 298 292 285 281 278 275 272 266 263 261 261 262 264 267 270 272 270 269 271 258 229 225 231 229 230 229 234 236 238 243 244 242 246 251 231 232
333 331 328 326 322 322 314 313 311 305 301 294 288 282 277 273 269 265 263 258 257 258 260 263 265 268 273 274 271 262 227 268 230 232 229 232 231 235 240 238 237 241 247 246 236 235 236
332 329 330 327 322 322 319 314 310 307 307 312 309 302 297 284 279 268 254 253 253 255 258 259 263 267 270 268 257 257 267 268 238 230 231 232 235 240 236 246 245 240 250 242 243 242 248
335 332 329 327 326 323 319 319 323 319 318 314 314 305 304 290 287 256 249 247 247 249 252 254 258 262 262 262 262 263 266 259 244 223 240 227 226 228 248 250 262 239 241 256 246 258 254
335 334 332 331 329 327 327 322 317 317 314 310 310 312 307 281 250 220 225 233 241 243 246 248 252 252 254 254 257 257 253 214 238 212 232 227 212 242 248 242 251 244 250 251 248 259 259
336 336 336 334 332 327 319 317 320 315 311 308 311 309 297 254 209 192 198 203 200 228 239 245 241 240 244 247 244 246 244 219 246 226 226 232 242 255 242 245 256 260 269 265 252 249 249
342 338 336 337 325 320 318 313 310 304 304 311 319 311 303 224 180 174 172 170 192 207 217 222 219 226 233 224 232 234 234 232 228 223 251 222 253 248 257 246 264 257 123 255 259 262 263
343 338 334 328 324 313 308 304 309 311 306 326 318 340 7 214 166 151 148 147 153 175 188 196 202 197 195 213 218 212 204 227 220 231 226 231 251 244 248 264 254 258 268 267 103 105 129
348 340 333 323 319 315 310 305 302 342 356 34 28 352 346 170 147 142 138 152 131 163 170 168 159 168 212 194 196 168 212 214 209 221 239 247 265 249 249 258 269 247 112 112 120 114 88
357 345 332 331 332 332 348 17 36 36 30 36 45 36 54 136 135 139 144 146 144 147 144 144 187 174 191 155 197 191 200 197 223 238 243 262 247 261 285 129 130 128 126 110 93 95 98
349 339 347 13 12 33 32 32 24 28 24 23 37 108 123 125 127 130 130 133 133 133 133 157 166 162 176 155 185 177 192 229 228 249 233 248 262 134 135 147 143 128 121 109 108 109 96
12 19 23 32 26 31 27 22 26 28 37 40 71 109 112 118 118 124 129 132 126 146 145 146 142 169 155 155 165 193 212 220 240 212 246 283 137 138 139 135 125 124 116 119 113 110 87
6 18 22 24 32 37 41 49 48 58 72 91 101 106 109 112 115 116 121 135 134 130 137 152 152 160 149 168 187 194 186 182 200 243 282 133 142 144 142 139 134 126 126 123 116 103 92
16 13 27 27 25 29 35 41 51 57 59 70 77 82 112 99 101 103 100 111 109 121 132 144 128 145 163 179 181 135 152 186 170 100 133 355 155 145 146 142 140 135 133 130 130 129 103
13 16 20 25 27 24 26 32 39 49 54 65 72 75 76 77 83 94 107 110 124 133 135 140 129 146 166 159 127 168 161 189 152 139 302 285 124 112 152 150 141 143 146 132 129 140 123
15 13 19 28 27 19 22 29 38 33 50 54 57 58 56 56 64 70 91 120 127 114 129 126 120 75 141 136 118 126 172 202 189 267 280 213 248 355 3 161 56 153 151 136 142 154 145
9 13 13 13 31 26 22 26 30 36 38 47 53 66 64 68 84 109 98 115 113 126 119 128 129 119 101 122 107 106 189 222 160 203 234 144 138 252 343 134 150 359 303 157 88 158 158
2 11 12 15 13 29 27 32 25 44 44 46 49 56 61 73 80 123 111 116 103 126 114 131 123 108 120 143 95 181 93 196 236 236 256 245 224 269 221 221 219 240 237 275 163 155 160
5 6 10 7 22 34 35 19 29 36 35 81 70 49 59 48 63 109 120 124 131 117 127 132 117 111 51 121 116 175 114 120 127 226 138 141 259 256 108 248 258 266 255 258 288 273 244
2 360 10 11 11 24 37 37 30 29 38 48 38 33 40 57 52 125 59 134 131 137 134 145 254 116 162 58 110 69 104 178 101 102 113 119 131 82 63 75 187 275 266 266 156 254 192
357 3 12 9 17 9 22 23 34 38 38 47 24 37 33 29 97 68 133 137 144 138 152 125 107 92 98 65 95 55 102 96 102 89 143 129 83 163 114 113 140 130 48 193 166 181 281
349 351 356 354 4 8 3 19 12 32 87 31 30 34 37 33 37 41 64 171 142 133 156 85 53 123 125 328 121 125 40 98 95 48 96 121 57 199 119 124 29 66 58 138 71 151 11
355 358 6 349 353 1 4 357 13 4 24 32 28 31 27 28 20 14 162 176 156 151 143 148 144 114 132 134 52 28 119 114 271 82 47 112 104 94 8 69 1 99 93 54 99 101 99
355 346 356 350 349 16 13 2 354 3 8 3 119 19 23 30 26 38 173 176 167 157 147 135 128 134 201 128 55 37 101 119 66 28 229 349 81 354 88 71 10 346 356 21 70 82 47
349 345 344 6 338 345 5 12 2 344 343 352 359 312 5 10 355 355 342 186 318 164 157 148 163 82 60 351 6 63 44 299 360 24 315 286 274 293 326 62 13 303 320 312 354 306 320
324 330 344 331 345 334 337 7 7 333 326 328 319 282 330 216 301 207 209 195 270 228 195 252 155 153 143 145 146 291 330 1 356 325 64 29 291 307 20 34 324 308 323 352 331 297 306